Location: Colonie
(42.7179°N, 73.8335°W)
Time: 05:24:26
(UTC+00:00)

USA 308 - Pass Details

Date: 29 October 2020
Orbit: 571 x 578 km, 54.0° (Epoch: 23 November)

Event Time Altitude Azimuth Distance (km) Brightness Sun altitude
Rises 23:32:37 0° 308° (NW) 2,785 7.2 -19.1°
Reaches altitude 10° 23:34:53 10° 311° (NW) 1,883 6.2 -19.6°
Maximum altitude 23:39:10 74° 36° (NE) 598 2.8 -20.3°
Enters shadow 23:39:53 58° 99° (E) 667 2.8 -20.5°
